Location: Bothwell
(42.3833°S, 147.0000°E)
Time: 18:53:53
(UTC+11:00)

BlueWalker 3 - Visible Passes

Search period start: 06 December 2022 00:00
Search period end: 16 December 2022 00:00
Orbit: 501 x 518 km, 53.2° (Epoch: 05 December)

Date Brightness Start Highest point End Pass type
(mag) Time Alt. Az. Time Alt. Az. Time Alt. Az.
06 Dec 1.8 02:48:47 73° NNW 02:49:06 83° NE 02:53:05 10° SE visible
06 Dec 3.9 04:24:51 10° WSW 04:28:10 25° SSW 04:31:31 10° SE visible
07 Dec 1.8 02:30:43 88° ENE 02:30:43 88° ENE 02:34:41 10° SE visible
07 Dec 4.0 04:06:32 10° WSW 04:09:48 24° SSW 04:13:07 10° SE visible
08 Dec 2.0 02:12:36 76° SE 02:12:36 76° SE 02:16:17 10° SE visible
08 Dec 4.1 03:48:12 10° WSW 03:51:26 24° SSW 03:54:42 10° SE visible
09 Dec 2.3 01:54:25 65° SE 01:54:25 65° SE 01:57:53 10° SE visible
09 Dec 4.1 03:29:51 10° WSW 03:33:04 23° SSW 03:36:17 10° SE visible
10 Dec 2.4 01:36:08 59° SSE 01:36:08 59° SSE 01:39:27 10° SE visible
10 Dec 4.2 03:11:31 10° WSW 03:14:41 22° SSW 03:17:52 10° SE visible
10 Dec 4.7 04:51:44 10° SW 04:54:28 17° S 04:57:12 10° SE visible
11 Dec 2.5 01:17:46 56° SSE 01:17:46 56° SSE 01:21:03 10° SE visible
11 Dec 4.3 02:53:10 10° WSW 02:56:18 22° SSW 02:59:27 10° SE visible
11 Dec 4.8 04:33:20 10° SW 04:36:05 18° S 04:38:49 10° SE visible
12 Dec 2.5 00:59:15 57° SSE 00:59:15 57° SSE 01:02:37 10° SE visible
12 Dec 4.4 02:34:49 10° WSW 02:37:55 21° SSW 02:41:00 10° SE visible
12 Dec 4.8 04:14:57 10° SW 04:17:42 18° S 04:20:28 10° SE visible
13 Dec 2.4 00:40:31 62° S 00:40:31 62° S 00:44:11 10° SE visible
13 Dec 4.5 02:16:28 10° WSW 02:19:31 21° SSW 02:22:35 10° SE visible
13 Dec 4.9 03:56:32 10° SW 03:59:19 18° S 04:02:06 10° SE visible
14 Dec 2.4 00:21:24 56° WSW 00:21:49 61° SSW 00:25:45 10° SE visible
14 Dec 4.6 01:58:07 10° WSW 02:01:07 20° SSW 02:04:09 10° SE visible
14 Dec 4.9 03:38:08 10° SW 03:40:56 18° S 03:43:43 10° SE visible
14 Dec 3.8 22:26:50 16° E 22:26:50 16° E 22:28:03 10° E visible
15 Dec 2.5 00:01:27 27° WNW 00:03:24 57° SSW 00:07:18 10° SE visible
15 Dec 4.6 01:39:45 10° WSW 01:42:43 20° SSW 01:45:43 10° SE visible
15 Dec 4.9 03:19:43 10° SW 03:22:31 18° S 03:25:21 10° SE visible
15 Dec 3.1 22:03:26 10° N 22:06:33 23° NE 22:09:41 10° ESE visible
15 Dec 2.7 23:41:07 10° WNW 23:44:57 54° SSW 23:48:51 10° SE visible
